MPEC 2000-E24: 2000 EC14

The following Minor Planet Electronic Circular may be linked-to from your own Web pages, but must not otherwise be redistributed electronically.


Read MPEC 2000-E23 Read MPEC 2000-E25


M.P.E.C. 2000-E24                                Issued 2000 Mar. 7, 15:40 UT

     The Minor Planet Electronic Circulars contain information on unusual
         minor planets and routine data on comets.  They are published
   on behalf of Commission 20 of the International Astronomical Union by the
          Minor Planet Center, Smithsonian Astrophysical Observatory,
                          Cambridge, MA 02138, U.S.A.

             Prepared using the Tamkin Foundation Computer Network

             BMARSDEN@CFA.HARVARD.EDU or GWILLIAMS@CFA.HARVARD.EDU
          URL http://cfa-www.harvard.edu/iau/mpc.html  ISSN 1523-6714

                                   2000 EC14

Observations:
     K00E14C* C2000 03 03.19077 10 04 35.28 +12 57 47.4          18.9        704
     K00E14C  C2000 03 03.20405 10 04 36.95 +12 58 15.0          19.0        704
     K00E14C  C2000 03 03.21732 10 04 38.59 +12 58 42.8          19.2        704
     K00E14C  C2000 03 03.23058 10 04 40.23 +12 59 10.6          19.0        704
     K00E14C  C2000 03 03.24383 10 04 41.88 +12 59 38.1          19.4        704
     K00E14C  C2000 03 04.24750 10 06 56.96 +13 33 42.2          19.4        704
     K00E14C  C2000 03 04.26097 10 06 58.52 +13 34 09.9          19.2        704
     K00E14C  C2000 03 04.27442 10 07 00.16 +13 34 38.5          19.7        704
     K00E14C  C2000 03 04.38529 10 07 14.07 +13 38 15.9          20.2 R      858
     K00E14C  C2000 03 04.38912 10 07 14.46 +13 38 23.2          20.2 R      858
     K00E14C  C2000 03 04.39453 10 07 15.11 +13 38 34.2          20.0 R      858
     K00E14C  C2000 03 04.49546 10 07 29.90 +13 42 33.9          18.6 R      474
     K00E14C  C2000 03 04.49640 10 07 30.02 +13 42 35.3          19.0 R      474
     K00E14C  C2000 03 04.49736 10 07 30.12 +13 42 37.4          18.3 R      474
     K00E14C  C2000 03 04.49837 10 07 30.27 +13 42 39.5          18.4 R      474
     K00E14C  C2000 03 05.29908 10 09 16.75 +14 08 10.7          19.2        704
     K00E14C  C2000 03 05.31229 10 09 18.34 +14 08 35.4          19.7        704
     K00E14C  C2000 03 05.32550 10 09 19.96 +14 09 01.8          20.1        704
     K00E14C  C2000 03 05.33873 10 09 21.55 +14 09 26.9          19.9        704
     K00E14C  C2000 03 05.35197 10 09 23.24 +14 09 51.7          19.9        704
     K00E14C  C2000 03 05.44793 10 09 37.28 +14 13 31.8          18.2 R      474
     K00E14C  C2000 03 05.45045 10 09 37.65 +14 13 37.4          17.7 R      474
     K00E14C  C2000 03 05.45171 10 09 37.81 +14 13 38.4          18.3 R      474
     K00E14C  C2000 03 05.85537 10 10 31.48 +14 25 44.2          18.4 R      046
     K00E14C  C2000 03 05.85654 10 10 31.55 +14 25 46.5                      046
     K00E14C  C2000 03 05.85778 10 10 31.89 +14 25 49.5                      046
     K00E14C  C2000 03 05.86034 10 10 32.28 +14 25 54.9                      046
     K00E14C WC2000 03 07.07550 10 13 10.71 +15 03 13.8                      557
     K00E14C WC2000 03 07.07814 10 13 10.93 +15 03 19.5          18.9 V      557

Observer details:
046 Klet.  Observers J. Ticha, M. Tichy.  0.57-m f/5.2 reflector + CCD.
474 Mount John Observatory, Lake Tekapo.  Observers I. P. Griffin, N. Brady.
    1.0-m f/7.7 reflector + CCD.
557 Ondrejov.  Observers L. Sarounova, P. Kusnirak.  0.65-m f/3.6 reflector
    + CCD.
704 Lincoln Laboratory ETS, New Mexico.  Observers M. Blythe, F. Shelly,
    M. Bezpalko, M. Elowitz, R. Huber.  Measurers J. Stuart, H. Viggh,
    R. Sayer, J. B. Evans.  1.0-m f/2.15 reflector + CCD.
858 Tebbutt Observatory, Edgewood.  Observer F. B. Zoltowski.  0.3-m f/3.3
    Schmidt-Cassegrain + CCD.

Orbital elements:
2000 EC14
Epoch 2000 Feb. 26.0 TT = JDT 2451600.5                 Williams
M   5.57125              (2000.0)            P               Q
n   0.23420984     Peri.  334.79864     -0.68962999     -0.72055794
a   2.6065494      Node   158.56034     +0.69335062     -0.68575795
e   0.5313725      Incl.   11.38558     +0.20898660     -0.10262696
P   4.21           H   20.5           G   0.15
From 29 observations 2000 Mar. 3-7.

Ephemeris:
2000 EC14                a,e,i = 2.61, 0.53, 11                  q = 1.2215
Date    TT    R. A. (2000) Decl.     Delta      r     Elong.  Phase     V
2000 03 07    10 13.03   +15 01.3    0.297    1.279   162.7    13.3    19.2
2000 03 12    10 23.73   +17 16.4    0.320    1.297   158.6    16.2    19.5
2000 03 17    10 33.97   +19 01.1    0.346    1.316   154.7    18.9    19.8
2000 03 22    10 43.72   +20 17.1    0.376    1.338   150.9    21.2    20.0
2000 03 27    10 52.99   +21 07.5    0.409    1.361   147.4    23.3    20.3
2000 04 01    11 01.82   +21 35.4    0.446    1.385   144.0    25.1    20.6
2000 04 06    11 10.31   +21 44.1    0.485    1.411   140.9    26.6    20.9
2000 04 11    11 18.51   +21 36.5    0.527    1.438   137.9    27.9    21.1
2000 04 16    11 26.48   +21 15.6    0.573    1.466   135.0    28.9    21.4
2000 04 21    11 34.27   +20 43.8    0.621    1.495   132.2    29.9    21.6
2000 04 26    11 41.89   +20 03.2    0.672    1.525   129.5    30.6    21.9
2000 05 01    11 49.40   +19 15.4    0.725    1.555   126.9    31.2    22.1
2000 05 06    11 56.84   +18 21.9    0.781    1.586   124.3    31.7    22.3

Gareth V. Williams           (C) Copyright 2000 MPC           M.P.E.C. 2000-E24

Read MPEC 2000-E23 Read MPEC 2000-E25


Our Web policy. Index to the CBAT/MPC/ICQ pages.

MPC